Home > Weather > Thompson > Past weeks

Flag for Canada Past Weather in Thompson, Manitoba, Canada — Yesterday and Last 2 Weeks

Now
63 °F

Partly sunny.


Feels Like: 63 °F
Forecast: 37 / 79 °F
Wind: 8 mph from Northwest

Location: Thompson

Current Time: Jun 30, 2016 at 10:55:03 AM

Latest Report: Jun 30, 2016 at 10:00 AM


Visibility: 15 mi

Pressure: 30.27 "Hg

Humidity: 49%

Dew Point: 43 °F

Location of ThompsonLocation

Past Weather in Thompson — Graph

°F

Thompson Temperature Yesterday

Maximum temperature yesterday: 61 °F (at 4:00 PM)
Minimum temperature yesterday: 46 °F (at 11:00 PM)
Average temperature yesterday: 55 °F

High & Low Weather Summary for the Past Weeks

 TemperatureHumidityPressure
High86 °F (Jun 23, 1:00 PM)100% (Jun 25, 4:00 AM)30.29 "Hg (Jun 25, 4:00 AM)
Low32 °F (Jun 30, 3:00 AM)19% (Jun 23, 2:00 PM)29.59 "Hg (Jun 19, 8:00 PM)
Average61 °F59%29.88 "Hg
* Reported Jun 15 9:00 AM — Jun 30 9:00 AM, Thompson, Weather by CustomWeather, © 2016

Note: Actual official high and low records may vary slightly from our data, if they occured in-between our weather recording intervals... More about our weather records

Advertising

Thompson Weather History for the Previous 24 Hours

Scroll right to see more
 ConditionsComfort  
Time TempWeatherWind HumidityBarometerVisibility
9:00 AM
Thu, Jun 30
57 °FScattered clouds.8 mph59%30.29 "Hg15 mi
8:00 AM52 °FScattered clouds.7 mph72%30.29 "Hg15 mi
7:00 AM45 °FPassing clouds.2 mph87%30.29 "Hg15 mi
6:00 AM37 °FLight fog.2 mph93%30.28 "Hg15 mi
5:00 AM34 °FClear.3 mph93%30.28 "Hg15 mi
4:00 AM32 °FClear.2 mph93%30.27 "Hg15 mi
3:00 AM32 °FClear.2 mph93%30.28 "Hg15 mi
2:00 AM34 °FClear.No wind93%30.28 "Hg15 mi
1:00 AM36 °FClear.2 mph93%30.27 "Hg15 mi
12:00 AM41 °FClear.No wind87%30.27 "Hg15 mi
11:00 PM
Wed, Jun 29
46 °FSunny.3 mph82%30.27 "Hg15 mi
10:00 PM50 °FSunny.3 mph76%30.26 "Hg15 mi
9:00 PM55 °FPassing clouds.8 mph63%30.25 "Hg15 mi
8:00 PM57 °FPassing clouds.13 mph59%30.23 "Hg15 mi
7:00 PM59 °FScattered clouds.12 mph59%30.23 "Hg15 mi
6:00 PM59 °FScattered clouds.12 mph59%30.21 "Hg15 mi
5:00 PM61 °FBroken clouds.15 mph52%30.19 "Hg15 mi
4:00 PM61 °FPartly sunny.13 mph55%30.19 "Hg15 mi
3:00 PM57 °FPartly sunny.8 mph63%30.19 "Hg15 mi
2:00 PM55 °FMostly cloudy.10 mph67%30.19 "Hg15 mi
1:00 PM54 °FMostly cloudy.12 mph67%30.19 "Hg15 mi
12:00 PM52 °FMostly cloudy.13 mph72%30.17 "Hg15 mi
11:00 AM54 °FOvercast.13 mph67%30.16 "Hg15 mi
10:05 AM50 °FOvercast.15 mph76%30.16 "Hg15 mi
Weather by CustomWeather, © 2016

See weather overviewHow to use our weather pages